Temp
-5 -4 -4 -4 -4 -4 -4 -4 -4 -4 -4 -4 -4 -4 -4 -4 -3 -3 -4 -4 -4 -4 -4 -5 -5 -6 -6 -6 -5 -5 -5 -5 -5 -5 -5 -5 -5 -6 -5 -5 -5 -6 -6 -6 -6
-5 -5 -5 -4 -4 -4 -4 -4 -4 -4 -4 -4 -4 -4 -4 -4 -4 -3 -4 -4 -5 -5 -6 -6 -6 -6 -6 -5 -6 -5 -5 -5 -5 -5 -5 -5 -6 -6 -5 -5 -4 -5 -5 -5 -6
-5 -5 -5 -5 -5 -4 -4 -4 -4 -4 -4 -5 -4 -4 -4 -4 -4 -4 -4 -5 -5 -5 -6 -6 -7 -7 -6 -6 -6 -6 -5 -6 -6 -5 -5 -5 -5 -5 -5 -5 -4 -5 -5 -5 -5
-5 -5 -5 -5 -5 -5 -5 -4 -4 -4 -5 -5 -5 -5 -4 -4 -4 -4 -5 -5 -7 -6 -6 -7 -7 -7 -7 -7 -6 -5 -6 -6 -6 -5 -5 -5 -5 -5 -5 -4 -4 -5 -5 -5 -6
-5 -5 -5 -5 -5 -5 -5 -4 -4 -4 -5 -5 -5 -5 -5 -4 -5 -5 -5 -6 -6 -6 -7 -7 -7 -7 -7 -7 -6 -6 -6 -7 -7 -6 -5 -5 -5 -6 -5 -5 -5 -5 -5 -5 -6
-5 -5 -5 -5 -5 -5 -5 -5 -4 -4 -5 -5 -5 -5 -5 -5 -5 -5 -5 -6 -6 -7 -8 -7 -8 -8 -8 -7 -7 -7 -7 -7 -7 -7 -6 -5 -6 -6 -5 -5 -5 -5 -5 -5 -5
-5 -5 -5 -5 -5 -5 -5 -5 -5 -5 -5 -5 -5 -5 -5 -4 -5 -5 -6 -7 -7 -8 -8 -8 -8 -8 -8 -8 -7 -7 -7 -7 -7 -7 -7 -6 -6 -6 -6 -6 -5 -5 -5 -6 -6
-6 -5 -5 -5 -6 -5 -5 -5 -5 -5 -5 -5 -5 -5 -5 -5 -5 -5 -6 -7 -7 -8 -8 -8 -8 -9 -8 -8 -7 -7 -7 -7 -8 -7 -7 -7 -7 -7 -7 -7 -6 -6 -6 -6 -6
-6 -6 -6 -5 -5 -5 -5 -5 -5 -5 -5 -6 -6 -5 -5 -5 -5 -5 -6 -7 -8 -8 -8 -8 -9 -9 -8 -8 -8 -7 -8 -8 -8 -8 -8 -8 -8 -8 -7 -7 -7 -6 -6 -6 -6
-6 -6 -6 -6 -5 -5 -5 -5 -5 -5 -5 -6 -6 -6 -5 -5 -5 -5 -6 -7 -8 -8 -8 -9 -9 -8 -7 -8 -8 -7 -8 -8 -7 -8 -8 -8 -8 -8 -8 -7 -7 -7 -7 -6 -6
-6 -6 -6 -6 -5 -5 -5 -6 -6 -5 -6 -6 -6 -5 -5 -5 -5 -5 -6 -7 -8 -8 -8 -9 -9 -8 -8 -8 -8 -8 -8 -7 -8 -8 -8 -8 -8 -8 -8 -8 -7 -7 -7 -7 -7
-7 -6 -6 -6 -6 -5 -6 -6 -6 -6 -5 -6 -5 -6 -6 -5 -5 -5 -6 -6 -7 -8 -8 -9 -8 -8 -8 -8 -7 -8 -8 -8 -7 -7 -8 -8 -8 -8 -8 -8 -8 -8 -8 -7 -7
-7 -7 -6 -6 -6 -6 -6 -6 -6 -6 -6 -6 -6 -6 -5 -5 -5 -5 -6 -6 -7 -8 -8 -9 -9 -8 -8 -8 -8 -8 -8 -8 -7 -7 -7 -7 -7 -8 -8 -8 -8 -8 -8 -7 -7
-8 -7 -7 -6 -6 -6 -6 -6 -6 -6 -6 -6 -6 -5 -6 -6 -6 -5 -6 -6 -7 -8 -9 -9 -9 -9 -9 -9 -8 -8 -8 -8 -7 -7 -7 -7 -7 -7 -7 -8 -8 -8 -8 -7 -8
-8 -8 -7 -7 -7 -7 -6 -6 -6 -6 -6 -6 -6 -6 -6 -6 -5 -5 -6 -7 -7 -8 -8 -8 -9 -9 -8 -9 -9 -9 -8 -8 -8 -8 -7 -7 -7 -7 -7 -7 -7 -7 -8 -8 -8
-9 -8 -8 -8 -7 -7 -7 -6 -6 -7 -6 -6 -6 -6 -6 -6 -5 -6 -6 -6 -7 -8 -9 -9 -9 -9 -9 -9 -9 -9 -9 -9 -8 -8 -7 -8 -8 -7 -7 -7 -6 -7 -8 -8 -8
-9 -9 -9 -8 -8 -8 -7 -7 -7 -7 -7 -6 -6 -6 -6 -6 -6 -6 -5 -6 -6 -7 -8 -9 -9 -9 -9 -9 -9 -9 -9 -9 -9 -9 -8 -8 -8 -7 -7 -7 -7 -7 -7 -7 -7
-10 -10 -9 -9 -9 -8 -8 -8 -8 -7 -7 -7 -6 -6 -6 -6 -5 -5 -5 -5 -6 -7 -8 -9 -9 -9 -9 -9 -9 -9 -9 -9 -9 -9 -9 -9 -8 -8 -8 -7 -7 -7 -7 -7 -7
-10 -10 -10 -10 -9 -9 -9 -8 -8 -8 -7 -7 -7 -7 -6 -6 -6 -5 -5 -6 -6 -7 -8 -9 -9 -9 -9 -9 -9 -9 -8 -9 -9 -9 -8 -8 -8 -8 -8 -8 -7 -7 -7 -7 -7
-11 -10 -10 -10 -10 -9 -9 -9 -9 -8 -8 -7 -7 -7 -6 -6 -6 -5 -5 -6 -6 -7 -8 -9 -9 -9 -9 -9 -9 -9 -9 -9 -9 -9 -8 -8 -8 -8 -8 -8 -8 -8 -7 -7 -7
-11 -10 -10 -10 -10 -9 -10 -9 -9 -8 -8 -8 -7 -7 -7 -6 -6 -6 -6 -6 -7 -8 -8 -9 -9 -9 -9 -9 -9 -9 -9 -8 -8 -8 -9 -9 -8 -8 -8 -8 -8 -8 -7 -8 -7
-11 -11 -10 -10 -10 -10 -10 -10 -9 -9 -9 -8 -8 -8 -7 -7 -6 -6 -6 -7 -8 -8 -8 -9 -9 -9 -9 -9 -9 -9 -8 -8 -9 -9 -9 -8 -8 -8 -8 -8 -9 -9 -9 -8 -8
-11 -10 -10 -10 -10 -10 -10 -10 -9 -9 -9 -9 -9 -8 -8 -7 -7 -7 -7 -7 -8 -8 -8 -9 -9 -10 -9 -9 -9 -9 -9 -9 -9 -9 -8 -9 -9 -9 -9 -9 -9 -9 -8 -8 -8
-11 -11 -11 -10 -10 -10 -10 -10 -10 -9 -9 -10 -9 -9 -8 -7 -8 -8 -9 -8 -8 -8 -8 -9 -9 -9 -9 -9 -9 -9 -9 -9 -9 -9 -9 -8 -8 -9 -9 -9 -9 -9 -9 -9 -9
-11 -11 -11 -11 -10 -10 -10 -10 -10 -10 -9 -10 -10 -9 -9 -8 -9 -9 -9 -9 -8 -8 -8 -9 -9 -9 -9 -9 -9 -8 -8 -8 -8 -8 -8 -8 -8 -9 -9 -9 -9 -9 -9 -9 -9
-11 -11 -11 -11 -11 -10 -10 -10 -10 -10 -10 -10 -10 -10 -10 -9 -9 -9 -9 -9 -9 -9 -9 -9 -9 -9 -9 -9 -9 -9 -9 -9 -9 -8 -8 -8 -8 -9 -9 -10 -9 -10 -9 -9 -9
-12 -12 -12 -11 -11 -11 -11 -10 -10 -10 -10 -10 -10 -10 -10 -9 -9 -9 -9 -9 -9 -9 -9 -9 -9 -9 -9 -9 -9 -9 -9 -9 -9 -8 -8 -8 -8 -9 -9 -9 -10 -9 -9 -9 -8
Height
5876 5878 5879 5881 5884 5886 5888 5890 5891 5893 5895 5896 5896 5897 5897 5898 5898 5900 5902 5904 5905 5905 5907 5909 5911 5913 5914 5915 5913 5912 5912 5910 5909 5908 5905 5903 5903 5902 5903 5904 5904 5904 5903 5903 5903
5873 5875 5876 5879 5881 5883 5885 5888 5890 5892 5893 5894 5895 5895 5895 5895 5896 5898 5900 5901 5903 5903 5908 5910 5911 5914 5915 5914 5914 5913 5912 5911 5911 5909 5907 5905 5904 5903 5904 5904 5904 5906 5905 5904 5904
5870 5872 5874 5875 5878 5880 5882 5884 5886 5888 5890 5891 5892 5893 5894 5894 5895 5896 5898 5899 5901 5904 5907 5908 5912 5913 5914 5914 5914 5913 5912 5911 5912 5911 5909 5907 5906 5904 5903 5904 5905 5907 5907 5906 5906
5866 5868 5871 5872 5874 5876 5879 5881 5883 5885 5887 5889 5890 5891 5892 5892 5894 5894 5896 5897 5898 5902 5906 5909 5912 5913 5914 5913 5913 5913 5913 5912 5912 5912 5911 5909 5907 5905 5904 5905 5905 5906 5905 5905 5906
5862 5865 5867 5869 5871 5873 5875 5878 5880 5883 5885 5886 5887 5888 5889 5891 5892 5892 5894 5895 5897 5901 5904 5908 5911 5913 5915 5915 5915 5913 5913 5914 5914 5914 5912 5911 5908 5907 5905 5904 5905 5905 5904 5905 5907
5858 5861 5863 5865 5868 5870 5872 5875 5877 5880 5882 5883 5885 5886 5887 5889 5890 5890 5891 5893 5894 5899 5903 5906 5910 5912 5915 5916 5916 5915 5914 5914 5914 5915 5914 5912 5910 5909 5907 5906 5906 5905 5905 5905 5906
5853 5856 5859 5862 5864 5867 5869 5871 5874 5877 5879 5881 5883 5884 5885 5887 5888 5889 5890 5892 5894 5896 5902 5905 5908 5911 5915 5916 5917 5917 5916 5915 5915 5915 5914 5914 5913 5910 5909 5908 5907 5906 5906 5906 5906
5849 5852 5855 5857 5860 5863 5865 5868 5871 5873 5875 5878 5880 5882 5883 5886 5886 5888 5889 5891 5893 5897 5901 5905 5908 5911 5914 5917 5919 5919 5917 5916 5916 5916 5915 5915 5913 5911 5910 5910 5910 5909 5909 5909 5909
5844 5847 5850 5853 5856 5858 5861 5864 5867 5869 5872 5874 5877 5880 5882 5883 5884 5885 5887 5888 5891 5895 5899 5903 5906 5909 5913 5916 5918 5918 5917 5917 5916 5916 5916 5915 5914 5913 5912 5912 5912 5911 5911 5910 5910
5839 5842 5845 5848 5852 5855 5858 5861 5863 5866 5868 5871 5874 5878 5879 5880 5881 5883 5884 5886 5889 5893 5898 5902 5905 5907 5911 5914 5917 5917 5917 5917 5916 5917 5916 5916 5916 5915 5914 5913 5914 5914 5914 5913 5912
5834 5838 5841 5844 5847 5851 5855 5857 5861 5863 5863 5866 5870 5872 5874 5876 5879 5881 5882 5884 5887 5892 5895 5900 5904 5904 5909 5911 5915 5918 5919 5919 5918 5917 5917 5917 5917 5917 5916 5915 5914 5915 5916 5915 5914
5829 5833 5836 5839 5843 5847 5851 5853 5855 5858 5860 5862 5865 5869 5871 5874 5877 5878 5880 5882 5885 5888 5894 5900 5903 5905 5909 5911 5914 5917 5919 5919 5919 5918 5918 5918 5919 5919 5918 5918 5917 5916 5915 5915 5914
5824 5828 5831 5835 5839 5843 5846 5849 5851 5853 5856 5859 5861 5865 5868 5871 5873 5875 5877 5880 5883 5886 5892 5898 5903 5904 5906 5910 5913 5916 5917 5917 5919 5919 5919 5919 5920 5920 5920 5919 5919 5917 5916 5914 5913
5818 5822 5826 5830 5835 5837 5841 5844 5847 5849 5853 5856 5857 5861 5865 5866 5869 5872 5874 5877 5879 5884 5889 5895 5899 5902 5905 5908 5912 5914 5913 5916 5918 5918 5919 5919 5921 5920 5921 5920 5918 5918 5917 5914 5912
5812 5816 5821 5825 5829 5833 5837 5839 5842 5846 5849 5852 5854 5857 5861 5864 5866 5869 5871 5873 5876 5880 5886 5892 5896 5899 5902 5907 5910 5912 5911 5914 5916 5917 5918 5918 5919 5918 5919 5920 5919 5917 5915 5914 5913
5807 5811 5816 5820 5824 5828 5831 5835 5839 5843 5844 5847 5849 5853 5856 5859 5863 5865 5867 5869 5873 5875 5881 5887 5893 5897 5901 5904 5907 5910 5911 5913 5914 5916 5917 5916 5916 5918 5918 5919 5919 5917 5914 5912 5909
5803 5807 5811 5815 5819 5823 5827 5831 5835 5836 5841 5844 5846 5849 5852 5856 5859 5862 5864 5866 5867 5871 5875 5881 5888 5894 5898 5901 5904 5907 5910 5912 5913 5914 5915 5914 5914 5917 5917 5918 5917 5914 5910 5909 5909
5799 5803 5807 5812 5815 5819 5823 5827 5829 5832 5836 5840 5844 5847 5850 5853 5856 5858 5860 5861 5863 5867 5874 5879 5884 5890 5895 5898 5902 5901 5906 5907 5909 5911 5913 5912 5913 5915 5915 5916 5914 5913 5911 5909 5907
5795 5799 5803 5808 5812 5816 5820 5822 5824 5829 5833 5837 5841 5844 5847 5850 5853 5854 5856 5858 5861 5865 5870 5875 5882 5888 5893 5896 5899 5899 5900 5903 5904 5909 5910 5910 5911 5912 5913 5914 5911 5910 5908 5907 5906
5792 5796 5800 5804 5808 5813 5816 5819 5822 5826 5829 5833 5837 5841 5844 5846 5850 5851 5852 5856 5859 5863 5869 5875 5881 5886 5890 5894 5897 5898 5901 5902 5903 5906 5907 5907 5908 5908 5909 5910 5908 5907 5906 5905 5903
5789 5793 5796 5800 5804 5809 5813 5816 5819 5823 5826 5830 5834 5838 5841 5844 5846 5849 5852 5855 5857 5861 5866 5872 5878 5884 5888 5891 5895 5897 5899 5901 5902 5903 5903 5904 5904 5905 5905 5904 5902 5902 5902 5901 5899
5786 5789 5793 5796 5801 5805 5809 5812 5815 5819 5823 5827 5832 5835 5839 5841 5844 5847 5850 5852 5855 5860 5865 5871 5876 5880 5885 5888 5891 5894 5895 5897 5897 5900 5900 5900 5900 5900 5900 5899 5896 5895 5894 5894 5893
5782 5785 5788 5791 5795 5800 5805 5809 5812 5816 5821 5825 5829 5832 5835 5839 5844 5846 5848 5851 5854 5858 5861 5867 5872 5878 5883 5887 5889 5891 5893 5894 5895 5895 5896 5896 5896 5895 5895 5894 5891 5889 5888 5888 5886
5779 5781 5784 5787 5791 5796 5801 5805 5808 5812 5818 5822 5825 5830 5833 5836 5840 5843 5847 5850 5853 5855 5861 5865 5871 5876 5882 5885 5887 5888 5890 5891 5891 5891 5891 5892 5890 5890 5890 5890 5886 5883 5882 5881 5879
5774 5777 5779 5782 5786 5790 5796 5801 5804 5808 5813 5818 5821 5826 5830 5834 5837 5841 5844 5848 5851 5853 5857 5863 5869 5874 5877 5881 5883 5885 5886 5886 5887 5887 5887 5887 5886 5885 5885 5884 5882 5879 5876 5874 5872
5770 5772 5774 5776 5780 5784 5790 5795 5799 5802 5808 5814 5817 5823 5827 5831 5835 5839 5841 5846 5851 5853 5857 5862 5867 5872 5874 5877 5879 5880 5881 5882 5882 5881 5879 5879 5880 5880 5880 5879 5876 5874 5872 5870 5868
5764 5765 5768 5771 5775 5780 5785 5789 5793 5798 5803 5808 5813 5818 5823 5828 5832 5837 5841 5844 5848 5853 5858 5861 5865 5869 5871 5874 5875 5876 5878 5878 5877 5875 5874 5873 5874 5874 5874 5873 5871 5868 5867 5865 5862
Wind_Speed
15 15 15 16 15 14 13 11 10 9 8 7 6 7 7 9 11 12 12 13 11 12 10 6 8 13 11 10 2 5 4 5 4 6 7 6 5 1 2 3 5 6 6 4 2
18 17 16 17 17 16 15 14 12 10 9 8 9 8 9 10 11 10 10 12 12 12 4 7 9 12 12 6 2 4 4 6 6 5 5 4 3 1 2 4 8 6 3 4 3
19 18 18 18 18 18 17 16 14 12 10 10 9 10 10 10 11 9 10 11 12 9 8 8 15 8 10 7 1 3 4 7 11 8 5 4 3 3 3 4 4 4 4 3 2
22 20 19 19 19 20 19 18 16 14 12 12 11 11 12 10 10 10 10 10 10 8 10 12 10 8 5 2 2 7 8 7 11 8 8 6 4 4 4 3 4 3 1 4 4
24 22 20 19 20 20 21 19 18 16 15 14 13 11 12 11 9 9 9 10 14 10 9 8 7 6 7 3 2 5 8 7 8 7 10 11 9 7 5 4 4 2 1 2 5
25 25 23 21 20 21 21 20 19 18 17 15 15 13 13 13 9 9 11 12 14 10 14 8 7 5 8 6 4 9 9 9 9 9 10 12 10 11 10 9 6 5 5 2 2
26 25 26 24 22 22 22 22 20 18 18 17 16 15 14 13 11 11 12 13 13 10 11 7 7 8 6 5 8 7 12 10 9 11 11 12 12 15 15 14 10 7 6 4 2
26 26 25 25 24 22 22 22 21 20 19 18 17 17 16 9 11 10 12 16 16 16 14 12 10 9 7 9 4 7 10 16 14 12 12 11 16 18 19 16 13 10 10 9 8
26 26 25 25 25 24 22 22 22 21 20 20 18 19 14 14 13 13 15 18 19 15 13 13 11 13 11 9 11 11 16 17 14 12 11 12 16 19 18 19 16 15 12 11 11
27 26 25 24 24 24 23 21 21 20 20 20 19 18 17 16 14 14 17 20 23 19 16 17 17 19 12 13 12 14 13 12 14 13 14 14 16 15 16 20 19 18 16 13 13
28 27 26 25 24 23 21 20 19 18 21 20 20 21 20 18 14 12 15 19 25 21 18 21 20 19 16 12 14 12 11 10 12 12 16 14 12 13 15 16 17 16 11 11 17
28 27 27 26 25 23 21 20 21 20 20 19 21 20 19 17 14 14 14 17 22 23 21 24 21 18 16 15 10 11 14 10 9 8 13 11 6 9 13 13 14 14 13 11 13
27 27 27 27 25 24 22 22 22 21 20 19 21 19 17 17 15 14 15 13 18 21 22 25 22 24 20 15 9 10 10 11 8 8 8 9 6 6 7 12 13 16 15 9 10
27 27 27 27 26 25 23 24 22 22 19 19 21 20 17 19 18 15 16 18 22 20 25 27 28 25 23 18 14 13 18 9 8 6 4 6 4 9 5 7 9 12 11 10 8
26 26 26 26 25 24 24 24 23 21 19 21 20 20 19 20 18 17 17 20 21 23 22 28 31 27 25 22 20 22 15 13 9 10 8 7 4 6 12 2 6 5 11 13 9
25 26 26 24 25 24 24 24 22 21 21 19 20 20 23 23 19 18 19 22 23 26 25 29 31 32 28 24 21 18 15 12 12 12 9 8 8 3 8 2 4 6 8 12 13
23 24 25 23 23 23 23 23 21 23 23 21 20 22 22 22 21 19 19 21 25 28 32 32 32 31 26 22 20 23 21 20 17 15 10 10 11 5 5 5 3 7 7 9 9
21 22 23 22 22 21 22 23 23 24 23 21 20 21 22 22 21 20 19 20 24 26 27 31 33 29 28 18 20 28 29 22 22 13 12 10 10 6 7 4 11 10 8 12 11
20 21 22 23 22 20 19 21 24 24 24 23 22 22 23 22 21 21 20 19 23 25 30 33 29 27 27 26 21 22 15 20 14 15 18 17 13 12 11 11 14 14 16 19 17
21 21 22 24 23 21 20 19 23 24 25 25 24 23 24 23 22 21 20 18 18 23 26 26 26 29 30 29 24 14 13 17 14 18 20 22 21 17 18 17 21 21 22 23 20
19 22 23 25 25 23 20 20 23 25 27 26 24 24 24 24 24 21 18 17 18 21 25 25 27 28 25 19 29 20 18 22 24 26 20 22 23 24 26 28 29 27 26 23 21
17 20 22 24 24 23 21 25 27 27 28 26 24 23 23 25 23 20 19 19 22 24 26 26 25 24 20 19 18 18 16 15 16 20 25 26 27 28 27 21 17 15 19 21 20
17 20 21 24 25 24 23 27 27 29 31 29 26 26 25 25 22 20 19 19 21 24 30 32 29 24 23 23 22 21 20 15 17 24 23 22 21 20 20 16 18 22 25 24 25
15 17 19 24 26 25 23 27 29 31 31 32 31 28 27 27 25 23 20 19 21 23 31 35 31 26 21 21 20 12 14 13 15 23 22 18 18 20 20 18 21 26 30 31 33
15 16 19 22 26 27 26 28 31 32 33 34 35 31 30 30 28 27 26 24 26 28 35 35 31 27 24 18 14 13 11 13 16 20 22 20 13 14 20 22 23 31 32 36 30
17 20 22 24 25 28 27 29 33 34 33 36 37 32 30 31 31 31 30 31 31 31 32 31 29 27 24 19 17 12 13 11 15 19 23 20 20 20 18 23 27 32 32 26 26
17 19 22 27 26 26 25 29 35 35 37 38 39 36 31 30 35 34 31 29 32 31 31 30 28 23 17 17 16 15 14 19 19 17 14 11 14 15 19 21 24 26 27 26 25
Wind_Direction
237 234 232 231 227 225 224 226 227 234 237 243 248 256 259 253 246 239 239 245 239 232 224 177 150 139 154 149 88 43 29 74 113 94 76 50 67 57 323 313 78 128 148 132 128
235 237 233 230 229 229 230 232 234 236 237 246 247 255 265 269 266 267 248 244 237 237 198 176 147 142 167 166 111 21 62 85 73 85 73 65 45 266 5 34 53 87 122 136 152
234 235 236 232 232 231 231 233 237 243 246 248 244 246 260 271 275 272 254 251 242 238 204 162 143 157 144 163 181 81 107 107 92 90 88 71 48 16 16 21 31 38 103 185 125
235 234 235 234 231 233 233 235 237 240 242 244 243 250 260 274 286 266 260 251 228 245 212 162 152 161 154 157 190 120 121 112 93 78 83 71 55 16 2 11 343 351 122 180 197
235 235 234 235 233 231 232 234 236 238 240 242 243 251 255 263 267 264 248 243 238 227 213 185 176 177 120 180 230 116 107 108 101 79 63 65 63 53 44 38 38 27 73 112 207
234 235 236 234 235 233 232 232 233 236 238 238 239 243 249 254 258 256 239 238 240 230 191 211 177 178 135 174 153 119 106 104 98 83 72 70 81 76 68 59 60 71 59 88 190
236 234 236 235 234 234 233 233 231 233 236 234 234 237 246 253 250 246 236 231 239 221 217 191 195 188 172 179 152 103 101 100 93 87 73 71 82 77 64 57 44 55 65 65 65
235 236 235 236 235 235 235 234 232 230 231 229 229 231 242 251 243 239 229 224 239 221 200 210 181 206 193 194 213 143 110 98 102 92 74 71 83 82 69 52 46 51 63 66 62
234 236 235 236 235 234 235 237 235 232 229 228 228 226 231 229 228 229 222 218 227 217 211 190 195 205 200 220 237 176 115 110 109 107 97 86 90 79 76 62 49 44 45 57 64
235 235 235 234 235 235 234 236 237 235 233 229 226 221 220 225 228 225 221 219 219 219 198 188 203 212 210 236 179 169 133 122 119 120 121 110 97 79 62 76 68 57 59 56 53
235 234 236 233 233 235 235 235 235 235 234 232 229 219 222 224 219 218 221 222 219 216 196 194 202 224 194 234 175 165 157 118 117 136 135 119 100 101 71 60 72 59 45 24 30
234 234 235 234 232 233 235 234 234 232 234 236 227 218 222 227 219 215 218 221 220 221 199 193 198 215 214 226 166 176 181 166 143 134 150 136 118 105 72 64 42 28 23 26 16
232 232 233 234 232 232 232 233 232 232 231 228 226 221 221 228 222 220 216 216 222 226 208 194 197 214 226 227 219 205 195 204 182 162 178 166 154 170 90 69 40 12 10 4 6
229 230 230 232 233 231 232 233 233 232 230 225 225 223 215 221 220 221 221 218 218 219 214 200 204 216 215 225 230 222 207 209 225 234 207 197 221 209 180 84 51 28 349 345 333
226 227 229 229 232 230 231 232 232 228 227 227 224 220 217 223 223 218 223 222 221 216 214 205 206 217 223 232 227 241 226 214 209 238 262 269 237 225 207 88 47 32 335 314 318
225 223 226 226 229 227 228 230 228 224 221 222 219 214 216 219 222 229 228 226 218 210 202 210 210 213 227 230 221 233 255 251 234 249 257 281 267 239 196 240 314 35 348 310 288
224 220 222 221 225 224 223 225 222 220 221 220 218 211 209 212 219 224 231 231 223 213 202 201 207 211 216 223 230 232 238 230 240 246 264 270 261 279 228 217 319 317 262 309 307
222 217 216 213 214 214 215 217 215 221 219 217 215 215 211 212 218 221 224 227 224 211 205 197 206 206 222 209 238 235 229 223 228 241 262 273 289 272 277 276 289 319 292 307 310
217 215 208 204 204 203 204 208 212 213 216 215 214 208 211 214 217 218 216 220 222 206 199 199 205 207 208 216 246 255 254 228 210 250 253 258 264 265 270 272 272 295 295 308 316
214 213 209 206 207 206 203 208 210 210 213 215 210 209 210 212 215 218 214 211 215 204 196 196 202 207 216 221 232 246 260 272 259 250 255 261 259 269 267 269 275 280 291 301 295
217 214 214 214 215 214 207 207 212 211 212 213 208 210 214 214 212 211 202 196 191 188 189 188 199 209 220 220 229 251 240 249 258 249 259 268 270 268 273 281 285 280 281 286 283
223 221 217 218 219 217 205 208 214 213 215 213 203 206 211 212 205 200 201 194 186 186 189 188 189 194 206 216 225 234 242 262 240 247 255 266 270 278 284 298 304 307 305 309 309
224 224 222 220 215 213 208 210 214 216 214 214 211 208 214 210 191 189 193 195 192 193 189 180 179 193 200 217 226 236 260 243 250 251 265 280 288 294 306 305 304 307 309 312 315
228 227 227 224 220 216 205 206 214 220 215 213 216 214 216 209 193 189 188 194 186 181 185 187 182 194 208 228 245 255 247 254 267 262 269 293 287 283 284 302 297 299 304 310 315
236 233 226 229 224 219 213 209 213 221 222 215 220 219 217 204 194 189 191 185 176 178 181 188 191 203 213 223 227 250 267 283 267 259 272 280 295 292 290 294 284 295 299 306 312
246 245 235 229 225 221 212 212 212 219 225 217 219 221 219 204 197 185 189 182 178 177 183 190 200 210 222 224 241 270 281 284 296 282 280 267 261 290 282 272 284 288 296 300 308
258 247 237 227 222 216 210 209 210 216 222 227 223 222 222 212 199 191 192 189 185 193 200 207 214 220 218 238 243 271 292 296 303 291 274 278 273 272 272 280 283 287 295 300 305